Location: Unspecified
(41.5516°N, 88.1098°W)
Time: 17:11:40
(UTC-05:00)

Resurs 1-4 Rocket - Visible Passes

Search period start: 31 October 2014 00:00
Search period end: 09 November 2014 23:00
Orbit: 801 x 814 km, 98.4° (Epoch: 30 October)

Date Brightness Start Highest point End Pass type
(mag) Time Alt. Az. Time Alt. Az. Time Alt. Az.
31 Oct 4.7 03:32:27 10° ENE 03:35:18 15° E 03:35:26 15° E visible
31 Oct 1.9 05:10:23 10° N 05:15:40 70° WNW 05:16:31 59° SW visible
01 Nov 2.2 04:45:57 10° NNE 04:51:16 72° ESE 04:51:33 70° SE visible
01 Nov 3.6 06:27:25 10° NNW 06:30:30 16° WNW 06:32:37 13° W visible
02 Nov 3.1 03:21:44 10° NNE 03:26:35 43° E 03:26:35 43° E visible
02 Nov 3.1 05:02:08 10° NNW 05:06:22 25° WNW 05:07:40 23° W visible
03 Nov 4.0 02:57:49 10° NE 03:01:37 25° E 03:01:37 25° E visible
03 Nov 2.5 04:37:14 10° N 04:42:09 40° WNW 04:42:42 39° W visible
04 Nov 4.7 02:34:27 10° NE 02:36:39 15° E 02:36:39 15° E visible
04 Nov 2.0 04:12:35 10° N 04:17:44 66° WNW 04:17:44 66° WNW visible
05 Nov 2.3 03:48:08 10° NNE 03:52:46 66° NE 03:52:46 66° NE visible
05 Nov 3.6 05:29:45 10° NNW 05:32:38 15° WNW 05:33:51 14° WNW visible
06 Nov 3.3 03:23:53 10° NNE 03:27:48 39° ENE 03:27:48 39° ENE visible
06 Nov 3.1 05:04:23 10° NNW 05:08:31 24° WNW 05:08:53 24° WNW visible
07 Nov 4.1 02:59:55 10° NE 03:02:51 24° ENE 03:02:51 24° ENE visible
07 Nov 2.6 04:39:28 10° N 04:43:55 37° WNW 04:43:55 37° WNW visible
08 Nov 4.8 02:36:28 10° NE 02:37:53 14° ENE 02:37:53 14° ENE visible
08 Nov 2.4 04:14:47 10° N 04:18:58 51° NNW 04:18:58 51° NNW visible
09 Nov 2.8 03:50:18 10° NNE 03:54:00 46° NNE 03:54:00 46° NNE visible
09 Nov 3.7 05:32:05 10° NNW 05:34:46 14° WNW 05:35:05 14° WNW visible
